Starlink 34133

operational
NORAD ID: 64143 Int'l Des: 2025-111 Owner: SPXS Country: US Constellation: starlink
LEOCIRCULAR

关于 Starlink 34133

正在加载描述...

实时位置

正在加载3D地球...

即将过境

高度历史

Altitude vs Time

uPlot chart will show altitude changes over time

两行轨道根数

1 64143U 25111W 25353.76810488 .00025415 00000-0 93035-3 0 9998
2 64143 42.9981 168.9403 0001328 269.7034 90.3665 15.27564290 33241
Epoch: Dec 19, 2025 • Age: 22 hours

当前状态

高度 495.4 km
速度 7.62 km/s
星下点 -43.02°S, 98.93°E
发射日期 May 24, 2025
运行时间 0.5 years
类型 internet

技术详情

分类 Payload
质量 575.00 kg
干质量 530.00 kg
总质量 575.00 kg
长度 0.30 m
直径 4.10 m
跨度 29.00 m
形状 Box + pan
制造商 SPXS
平台类型 Starlink V2MO
阶段状态 In Orbit
所有者/国家 SPXS/US

大型星座

Loading constellations...